User: anonymous
Location: eljas
(40.1958°N, 6.8661°W)
Time: 07:46:40
(UTC+02:00)
Language:

Okean O Rocket - Orbit

View from above orbital plane
View from above orbital plane
View from above satellite
View from above satellite

Ground track
Ground track

The orbit data is extracted from the following two-line orbital elements,

1 25861U 99039B   14202.83873802  .00000026  00000-0  10932-4 0  6815
2 25861 097.9517 161.3297 0014436 261.9562 153.7497 14.77728883808984
Epoch (UTC): 21 July 2014 20:07:46
Eccentricity: 0.0014436
inclination: 97.9517°
perigee height: 626 km
apogee height: 646 km
right ascension of ascending node: 161.3297°
argument of perigee: 261.9562°
revolutions per day: 14.77728883
mean anomaly at epoch: 153.7497°
orbit number at epoch: 80898

The dashed part of the orbit path shows where the satellite is in the earth's shadow,  

DLR